QPF
0.02 0.03 0.03 0.03 0.04 0.03 0.04 0.04 0.04 0.06 0.06 0.06 0.06 0.05 0.04 0.04 0.04 0.04 0.04 0.04 0.03 0.03 0.02 0.02 0.02 0.03 0.04 0.04 0.02 0.02 0.03 0.02 0.03 0.03 0.03 0.02 0.02 0.03
0.02 0.02 0.02 0.01 0.02 0.02 0.02 0.02 0.03 0.05 0.05 0.05 0.05 0.04 0.04 0.04 0.04 0.03 0.03 0.03 0.02 0.02 0.02 0.02 0.03 0.03 0.03 0.03 0.02 0.01 0.02 0.02 0.02 0.02 0.02 0.02 0.02 0.03
0.02 0.01 0.01 0.01 0.01 0.01 0.01 0.01 0.02 0.02 0.03 0.04 0.04 0.03 0.03 0.02 0.02 0.03 0.03 0.03 0.02 0.02 0.02 0.01 0.02 0.02 0.02 0.02 0.03 0.02 0.01 0.01 0.02 0.02 0.02 0.02 0.02 0.02
0.02 0.02 0.01 0.01 0.01 0.01 0.01 0.01 0.01 0.01 0.01 0.01 0.01 0.02 0.02 0.01 0.02 0.03 0.03 0.03 0.02 0.02 0.02 0.02 0.01 0.02 0.02 0.02 0.03 0.03 0.02 0.01 0.02 0.02 0.01 0.01 0.01 0.01
0.01 0.02 0.01 0.02 0.01 0.01 0.01 0.01 0.01 0.01 0.01 0.01 0.01 0.01 0.01 0.01 0.01 0.02 0.02 0.03 0.02 0.02 0.02 0.02 0.02 0.02 0.02 0.03 0.03 0.02 0.02 0.02 0.01 0.01 0.01 0.01 0.01 0.01
0.02 0.01 0.01 0.01 0.01 0.01 0.01 0.01 0.01 0.02 0.03 0.03 0.02 0.02 0.01 0.01 0.01 0.02 0.02 0.02 0.03 0.02 0.02 0.02 0.01 0.01 0.02 0.02 0.02 0.02 0.03 0.03 0.02 0.01 0.01 0.00 0.00 0.01
0.02 0.01 0.01 0.01 0.01 0.01 0.01 0.01 0.01 0.01 0.01 0.01 0.02 0.01 0.01 0.01 0.01 0.02 0.02 0.02 0.01 0.01 0.01 0.01 0.01 0.01 0.01 0.02 0.02 0.03 0.03 0.02 0.02 0.02 0.02 0.02 0.01 0.01
0.01 0.01 0.01 0.01 0.01 0.01 0.00 0.01 0.01 0.01 0.01 0.01 0.02 0.01 0.01 0.01 0.01 0.02 0.02 0.02 0.01 0.01 0.01 0.01 0.01 0.01 0.01 0.01 0.02 0.02 0.02 0.02 0.02 0.02 0.03 0.04 0.03 0.02
0.01 0.01 0.01 0.01 0.01 0.01 0.01 0.01 0.01 0.01 0.01 0.01 0.02 0.02 0.02 0.02 0.03 0.02 0.01 0.01 0.01 0.01 0.01 0.01 0.01 0.01 0.01 0.01 0.01 0.01 0.01 0.01 0.02 0.03 0.04 0.03 0.02 0.02
0.01 0.01 0.01 0.01 0.01 0.01 0.01 0.01 0.00 0.00 0.01 0.02 0.02 0.02 0.02 0.02 0.03 0.03 0.03 0.02 0.01 0.01 0.01 0.01 0.01 0.01 0.00 0.00 0.01 0.01 0.01 0.01 0.02 0.03 0.03 0.02 0.02 0.01
0.01 0.01 0.01 0.01 0.01 0.01 0.01 0.00 0.00 0.00 0.01 0.02 0.02 0.02 0.02 0.02 0.03 0.04 0.04 0.03 0.02 0.01 0.01 0.01 0.01 0.01 0.00 0.00 0.00 0.01 0.01 0.01 0.01 0.01 0.02 0.02 0.01 0.02
0.02 0.02 0.01 0.01 0.01 0.01 0.01 0.01 0.01 0.00 0.01 0.01 0.01 0.01 0.01 0.02 0.02 0.02 0.02 0.02 0.01 0.01 0.01 0.01 0.01 0.01 0.00 0.00 0.00 0.00 0.00 0.00 0.00 0.00 0.01 0.01 0.01 0.01
0.02 0.01 0.01 0.01 0.01 0.01 0.01 0.00 0.01 0.01 0.01 0.01 0.01 0.01 0.01 0.01 0.02 0.02 0.02 0.02 0.01 0.01 0.02 0.01 0.01 0.01 0.01 0.00 0.00 0.00 0.00 0.00 0.00 0.00 0.00 0.01 0.02 0.02
0.01 0.01 0.01 0.01 0.01 0.01 0.01 0.00 0.01 0.01 0.01 0.01 0.01 0.01 0.01 0.02 0.02 0.02 0.02 0.02 0.02 0.02 0.02 0.02 0.02 0.01 0.01 0.01 0.00 0.00 0.00 0.00 0.00 0.00 0.00 0.00 0.01 0.02
0.01 0.01 0.01 0.01 0.01 0.01 0.01 0.01 0.00 0.01 0.01 0.01 0.01 0.01 0.01 0.01 0.02 0.02 0.02 0.02 0.03 0.03 0.02 0.02 0.03 0.02 0.01 0.01 0.01 0.01 0.01 0.01 0.01 0.01 0.01 0.01 0.01 0.01
0.02 0.01 0.01 0.01 0.01 0.00 0.00 0.00 0.00 0.00 0.01 0.01 0.01 0.01 0.02 0.02 0.01 0.02 0.02 0.03 0.03 0.03 0.04 0.04 0.03 0.04 0.03 0.03 0.02 0.02 0.02 0.02 0.01 0.01 0.01 0.02 0.02 0.02
0.01 0.01 0.01 0.01 0.01 0.01 0.01 0.00 0.00 0.00 0.00 0.00 0.00 0.01 0.01 0.01 0.02 0.02 0.03 0.03 0.03 0.02 0.03 0.03 0.04 0.04 0.04 0.04 0.04 0.03 0.03 0.02 0.02 0.02 0.02 0.02 0.02 0.02
0.02 0.01 0.01 0.01 0.01 0.01 0.01 0.01 0.01 0.01 0.01 0.01 0.01 0.02 0.03 0.03 0.03 0.03 0.03 0.02 0.02 0.02 0.02 0.02 0.03 0.03 0.04 0.04 0.03 0.03 0.02 0.03 0.02 0.02 0.02 0.02 0.02 0.03
0.02 0.01 0.01 0.01 0.01 0.01 0.01 0.01 0.01 0.02 0.01 0.01 0.02 0.02 0.02 0.03 0.03 0.02 0.03 0.03 0.03 0.04 0.03 0.02 0.02 0.02 0.02 0.02 0.02 0.02 0.02 0.02 0.02 0.02 0.02 0.02 0.02 0.02
0.02 0.01 0.01 0.01 0.01 0.01 0.01 0.01 0.02 0.02 0.02 0.02 0.02 0.02 0.02 0.02 0.02 0.02 0.02 0.02 0.02 0.03 0.03 0.03 0.03 0.03 0.02 0.02 0.02 0.01 0.01 0.01 0.01 0.01 0.02 0.02 0.02 0.02
0.02 0.01 0.01 0.01 0.01 0.01 0.01 0.02 0.02 0.02 0.02 0.01 0.01 0.01 0.01 0.01 0.02 0.02 0.02 0.02 0.02 0.02 0.02 0.02 0.03 0.03 0.02 0.02 0.01 0.01 0.01 0.01 0.01 0.01 0.01 0.01 0.01 0.01
0.01 0.01 0.01 0.01 0.02 0.02 0.02 0.01 0.01 0.01 0.01 0.01 0.01 0.01 0.01 0.01 0.01 0.02 0.02 0.02 0.02 0.01 0.01 0.01 0.01 0.01 0.01 0.01 0.02 0.01 0.01 0.01 0.01 0.01 0.01 0.01 0.01 0.01
0.02 0.02 0.01 0.01 0.01 0.01 0.01 0.00 0.01 0.01 0.01 0.01 0.01 0.02 0.02 0.02 0.02 0.02 0.01 0.01 0.01 0.01 0.01 0.01 0.01 0.01 0.02 0.02 0.02 0.02 0.01 0.01 0.01 0.01 0.01 0.01 0.01 0.01
MSLP
1004.68 1004.19 1003.84 1003.61 1003.47 1003.42 1003.42 1003.47 1003.54 1003.64 1003.75 1003.89 1004.04 1004.19 1004.36 1004.53 1004.72 1004.94 1005.20 1005.51 1005.88 1006.31 1006.80 1007.31 1007.84 1008.34 1008.82 1009.24 1009.63 1009.98 1010.31 1010.66 1011.03 1011.44 1011.90 1012.38 1012.87 1013.35
1005.25 1004.72 1004.30 1003.98 1003.76 1003.63 1003.56 1003.56 1003.62 1003.73 1003.88 1004.08 1004.30 1004.54 1004.79 1005.04 1005.28 1005.54 1005.82 1006.12 1006.48 1006.87 1007.32 1007.79 1008.27 1008.74 1009.19 1009.60 1009.97 1010.31 1010.64 1010.97 1011.32 1011.70 1012.11 1012.54 1012.99 1013.42
1006.00 1005.45 1004.99 1004.61 1004.32 1004.11 1003.97 1003.92 1003.94 1004.04 1004.22 1004.45 1004.72 1005.03 1005.33 1005.64 1005.93 1006.22 1006.50 1006.80 1007.12 1007.47 1007.86 1008.27 1008.70 1009.13 1009.54 1009.93 1010.29 1010.62 1010.94 1011.26 1011.59 1011.95 1012.32 1012.72 1013.12 1013.51
1006.80 1006.29 1005.83 1005.42 1005.09 1004.82 1004.63 1004.53 1004.51 1004.59 1004.75 1004.98 1005.27 1005.60 1005.93 1006.26 1006.57 1006.86 1007.14 1007.41 1007.69 1007.99 1008.32 1008.66 1009.03 1009.40 1009.77 1010.13 1010.46 1010.78 1011.09 1011.40 1011.72 1012.06 1012.42 1012.79 1013.16 1013.51
1007.58 1007.12 1006.70 1006.32 1005.97 1005.68 1005.46 1005.31 1005.25 1005.29 1005.41 1005.61 1005.88 1006.18 1006.51 1006.83 1007.13 1007.40 1007.65 1007.88 1008.12 1008.36 1008.62 1008.89 1009.19 1009.50 1009.82 1010.13 1010.43 1010.72 1011.02 1011.32 1011.64 1011.97 1012.31 1012.67 1013.02 1013.36
1008.24 1007.87 1007.52 1007.18 1006.86 1006.58 1006.35 1006.17 1006.07 1006.05 1006.11 1006.25 1006.47 1006.72 1007.00 1007.28 1007.55 1007.78 1008.00 1008.19 1008.37 1008.55 1008.74 1008.95 1009.18 1009.42 1009.67 1009.92 1010.18 1010.44 1010.71 1011.00 1011.30 1011.62 1011.96 1012.31 1012.67 1013.01
1008.76 1008.48 1008.20 1007.92 1007.66 1007.40 1007.17 1006.98 1006.84 1006.76 1006.76 1006.84 1006.97 1007.16 1007.37 1007.59 1007.81 1008.01 1008.18 1008.33 1008.47 1008.60 1008.73 1008.87 1009.02 1009.19 1009.37 1009.56 1009.76 1009.98 1010.21 1010.47 1010.75 1011.06 1011.40 1011.75 1012.11 1012.46
1009.12 1008.92 1008.71 1008.50 1008.29 1008.07 1007.86 1007.66 1007.49 1007.37 1007.30 1007.30 1007.36 1007.47 1007.62 1007.78 1007.95 1008.10 1008.24 1008.36 1008.46 1008.55 1008.63 1008.71 1008.80 1008.90 1009.00 1009.12 1009.26 1009.42 1009.60 1009.82 1010.07 1010.36 1010.68 1011.02 1011.38 1011.75
1009.38 1009.22 1009.07 1008.91 1008.75 1008.56 1008.37 1008.17 1007.99 1007.83 1007.71 1007.64 1007.64 1007.68 1007.76 1007.87 1008.00 1008.12 1008.23 1008.33 1008.40 1008.46 1008.51 1008.54 1008.57 1008.61 1008.65 1008.70 1008.77 1008.86 1008.99 1009.15 1009.35 1009.60 1009.89 1010.22 1010.58 1010.95
1009.58 1009.44 1009.31 1009.19 1009.05 1008.90 1008.72 1008.53 1008.33 1008.15 1008.00 1007.89 1007.83 1007.82 1007.85 1007.92 1008.01 1008.11 1008.20 1008.28 1008.34 1008.38 1008.40 1008.40 1008.39 1008.37 1008.35 1008.34 1008.35 1008.38 1008.44 1008.54 1008.69 1008.88 1009.13 1009.43 1009.76 1010.11
1009.78 1009.63 1009.51 1009.39 1009.27 1009.13 1008.96 1008.78 1008.59 1008.40 1008.22 1008.08 1007.99 1007.94 1007.94 1007.97 1008.03 1008.11 1008.18 1008.24 1008.28 1008.31 1008.30 1008.28 1008.24 1008.18 1008.12 1008.06 1008.02 1007.99 1007.99 1008.03 1008.12 1008.26 1008.44 1008.68 1008.97 1009.28
1010.01 1009.84 1009.70 1009.58 1009.46 1009.32 1009.16 1008.99 1008.80 1008.60 1008.42 1008.26 1008.14 1008.07 1008.03 1008.03 1008.06 1008.10 1008.14 1008.18 1008.20 1008.20 1008.18 1008.14 1008.08 1008.00 1007.92 1007.83 1007.75 1007.68 1007.63 1007.62 1007.64 1007.72 1007.84 1008.01 1008.23 1008.49
1010.28 1010.08 1009.92 1009.78 1009.65 1009.52 1009.36 1009.19 1009.00 1008.81 1008.62 1008.45 1008.31 1008.20 1008.13 1008.09 1008.07 1008.07 1008.07 1008.06 1008.04 1008.01 1007.97 1007.91 1007.84 1007.76 1007.67 1007.58 1007.48 1007.40 1007.32 1007.27 1007.24 1007.25 1007.29 1007.39 1007.54 1007.73
1010.55 1010.34 1010.16 1010.01 1009.87 1009.73 1009.57 1009.40 1009.22 1009.02 1008.83 1008.64 1008.48 1008.33 1008.21 1008.12 1008.03 1007.96 1007.90 1007.84 1007.77 1007.70 1007.63 1007.56 1007.49 1007.41 1007.34 1007.26 1007.18 1007.09 1007.01 1006.93 1006.86 1006.81 1006.79 1006.80 1006.87 1006.98
1010.80 1010.59 1010.41 1010.25 1010.10 1009.96 1009.80 1009.62 1009.43 1009.23 1009.02 1008.81 1008.61 1008.42 1008.25 1008.08 1007.92 1007.77 1007.63 1007.50 1007.37 1007.26 1007.16 1007.07 1007.00 1006.95 1006.90 1006.86 1006.80 1006.74 1006.66 1006.57 1006.47 1006.37 1006.29 1006.23 1006.22 1006.25
1011.02 1010.81 1010.63 1010.48 1010.33 1010.17 1010.01 1009.83 1009.63 1009.41 1009.18 1008.94 1008.70 1008.45 1008.21 1007.97 1007.73 1007.50 1007.27 1007.06 1006.87 1006.71 1006.59 1006.50 1006.44 1006.41 1006.40 1006.40 1006.39 1006.36 1006.30 1006.21 1006.09 1005.95 1005.81 1005.68 1005.58 1005.54
1011.18 1010.99 1010.83 1010.68 1010.53 1010.37 1010.20 1010.00 1009.78 1009.54 1009.28 1009.01 1008.72 1008.42 1008.12 1007.80 1007.49 1007.17 1006.87 1006.60 1006.35 1006.15 1006.01 1005.91 1005.87 1005.88 1005.91 1005.95 1005.98 1005.98 1005.94 1005.86 1005.72 1005.55 1005.36 1005.17 1005.00 1004.88
1011.30 1011.14 1011.00 1010.86 1010.71 1010.54 1010.34 1010.13 1009.88 1009.62 1009.33 1009.02 1008.69 1008.35 1007.99 1007.62 1007.24 1006.87 1006.51 1006.18 1005.90 1005.68 1005.52 1005.44 1005.41 1005.44 1005.51 1005.59 1005.66 1005.69 1005.67 1005.58 1005.43 1005.23 1005.00 1004.75 1004.52 1004.33
1011.42 1011.29 1011.16 1011.02 1010.86 1010.68 1010.47 1010.23 1009.96 1009.66 1009.34 1009.00 1008.64 1008.26 1007.86 1007.46 1007.05 1006.64 1006.26 1005.90 1005.61 1005.38 1005.22 1005.14 1005.14 1005.19 1005.28 1005.39 1005.48 1005.52 1005.51 1005.42 1005.25 1005.02 1004.75 1004.45 1004.17 1003.93
1011.57 1011.46 1011.34 1011.19 1011.02 1010.82 1010.58 1010.31 1010.01 1009.69 1009.34 1008.98 1008.60 1008.20 1007.79 1007.37 1006.95 1006.54 1006.15 1005.80 1005.51 1005.28 1005.14 1005.08 1005.08 1005.15 1005.26 1005.37 1005.46 1005.51 1005.49 1005.39 1005.20 1004.95 1004.64 1004.32 1004.00 1003.72
1011.76 1011.66 1011.54 1011.39 1011.20 1010.97 1010.70 1010.40 1010.08 1009.72 1009.36 1008.98 1008.58 1008.18 1007.77 1007.36 1006.95 1006.56 1006.19 1005.86 1005.59 1005.39 1005.26 1005.21 1005.23 1005.31 1005.41 1005.52 1005.60 1005.64 1005.60 1005.48 1005.28 1005.01 1004.69 1004.35 1004.01 1003.72
1011.99 1011.89 1011.76 1011.60 1011.39 1011.13 1010.84 1010.51 1010.16 1009.78 1009.40 1009.01 1008.61 1008.21 1007.82 1007.42 1007.04 1006.68 1006.34 1006.04 1005.81 1005.63 1005.53 1005.49 1005.52 1005.59 1005.69 1005.78 1005.85 1005.87 1005.81 1005.68 1005.47 1005.20 1004.87 1004.53 1004.20 1003.92
1012.25 1012.14 1012.00 1011.81 1011.58 1011.30 1010.98 1010.63 1010.25 1009.86 1009.46 1009.06 1008.67 1008.27 1007.89 1007.52 1007.16 1006.83 1006.53 1006.27 1006.07 1005.93 1005.85 1005.83 1005.87 1005.93 1006.02 1006.10 1006.15 1006.15 1006.08 1005.95 1005.74 1005.48 1005.17 1004.86 1004.56 1004.31
Thickness
5668 5665 5663 5662 5661 5660 5657 5654 5649 5645 5645 5649 5651 5654 5654 5654 5654 5653 5653 5653 5653 5652 5652 5652 5652 5653 5653 5653 5653 5653 5654 5654 5654 5655 5655 5656 5657 5658
5665 5662 5659 5658 5657 5656 5654 5652 5649 5645 5642 5644 5646 5648 5649 5649 5648 5648 5647 5647 5647 5647 5647 5646 5646 5646 5646 5646 5647 5647 5647 5648 5648 5649 5650 5650 5651 5652
5661 5658 5656 5655 5653 5652 5650 5648 5645 5642 5639 5640 5642 5643 5643 5642 5642 5641 5641 5641 5641 5641 5640 5640 5640 5639 5639 5639 5640 5640 5641 5641 5642 5643 5644 5645 5646 5647
5658 5655 5653 5652 5649 5648 5646 5644 5641 5639 5636 5634 5635 5636 5637 5637 5636 5635 5635 5636 5635 5635 5634 5634 5633 5633 5633 5633 5634 5635 5635 5635 5636 5637 5638 5639 5640 5641
5655 5653 5651 5648 5646 5644 5642 5640 5638 5636 5633 5630 5629 5630 5630 5630 5629 5629 5629 5628 5629 5628 5628 5627 5627 5627 5627 5627 5628 5628 5629 5630 5631 5631 5632 5633 5633 5634
5652 5650 5648 5646 5643 5641 5639 5636 5634 5631 5628 5626 5624 5623 5622 5623 5622 5620 5620 5620 5621 5622 5621 5621 5620 5620 5621 5621 5621 5622 5622 5623 5624 5625 5626 5626 5627 5627
5647 5646 5645 5643 5641 5638 5636 5632 5629 5626 5623 5620 5618 5617 5616 5615 5614 5614 5613 5613 5613 5614 5613 5614 5614 5614 5614 5615 5615 5616 5617 5618 5619 5619 5620 5620 5621 5621
5642 5641 5640 5638 5637 5635 5632 5630 5626 5622 5618 5615 5613 5611 5612 5611 5610 5609 5606 5605 5605 5608 5606 5607 5608 5608 5609 5610 5611 5612 5612 5613 5613 5614 5614 5615 5616 5616
5637 5635 5634 5633 5631 5629 5626 5625 5622 5620 5618 5613 5610 5608 5608 5608 5606 5604 5602 5601 5601 5603 5601 5601 5602 5603 5605 5606 5606 5607 5607 5608 5608 5609 5609 5610 5610 5610
5634 5631 5628 5626 5625 5623 5620 5618 5616 5615 5613 5610 5608 5607 5607 5606 5603 5602 5600 5598 5598 5598 5597 5595 5597 5597 5600 5601 5602 5603 5603 5603 5604 5605 5605 5605 5605 5605
5630 5628 5625 5623 5621 5618 5614 5611 5610 5610 5610 5608 5606 5604 5604 5603 5600 5597 5594 5591 5590 5591 5592 5591 5592 5592 5594 5595 5597 5598 5599 5599 5599 5600 5600 5599 5599 5598
5625 5623 5622 5619 5616 5613 5609 5606 5604 5604 5604 5603 5601 5600 5599 5598 5597 5594 5592 5588 5586 5586 5588 5586 5586 5585 5586 5590 5592 5593 5593 5593 5593 5594 5593 5593 5593 5591
5620 5618 5617 5615 5612 5609 5606 5603 5601 5600 5598 5596 5595 5594 5594 5593 5592 5591 5590 5587 5584 5584 5586 5583 5581 5580 5579 5581 5583 5585 5586 5586 5586 5587 5587 5587 5586 5585
5615 5614 5612 5611 5608 5606 5603 5601 5599 5596 5593 5591 5590 5589 5589 5588 5589 5588 5587 5586 5585 5584 5584 5581 5578 5577 5574 5574 5575 5577 5579 5580 5580 5580 5581 5581 5580 5580
5612 5611 5609 5606 5604 5601 5600 5598 5595 5591 5589 5587 5586 5586 5586 5585 5584 5583 5583 5582 5581 5580 5579 5578 5576 5574 5571 5569 5569 5570 5570 5572 5573 5573 5574 5574 5574 5572
5606 5605 5603 5601 5598 5597 5595 5593 5591 5588 5586 5584 5583 5583 5582 5581 5579 5578 5576 5575 5573 5574 5575 5574 5573 5570 5567 5566 5565 5565 5564 5564 5566 5566 5566 5567 5567 5566
5601 5598 5595 5593 5591 5591 5589 5588 5587 5584 5582 5580 5579 5578 5577 5575 5574 5572 5570 5568 5566 5566 5567 5568 5567 5566 5565 5563 5561 5561 5560 5560 5560 5560 5558 5558 5560 5560
5596 5592 5590 5588 5587 5586 5584 5584 5582 5580 5579 5577 5575 5573 5571 5569 5567 5566 5564 5562 5561 5561 5561 5561 5559 5558 5557 5558 5559 5557 5555 5555 5555 5554 5552 5551 5553 5554
5590 5588 5586 5584 5583 5582 5580 5579 5577 5576 5575 5572 5570 5568 5566 5564 5562 5560 5558 5557 5556 5556 5556 5555 5553 5551 5549 5551 5554 5554 5551 5550 5548 5547 5546 5546 5546 5548
5586 5584 5582 5581 5579 5578 5576 5574 5573 5571 5568 5566 5565 5563 5561 5559 5557 5555 5553 5552 5551 5551 5550 5550 5549 5548 5547 5547 5547 5548 5548 5546 5543 5541 5540 5540 5540 5542
5583 5581 5580 5578 5577 5575 5573 5571 5568 5566 5563 5561 5559 5557 5555 5553 5551 5550 5548 5547 5545 5544 5544 5545 5546 5546 5545 5542 5540 5540 5541 5541 5540 5538 5536 5534 5533 5533
5580 5578 5577 5575 5573 5571 5569 5566 5563 5561 5559 5556 5554 5552 5550 5548 5546 5544 5542 5541 5540 5539 5540 5540 5541 5540 5537 5535 5534 5534 5533 5534 5534 5534 5533 5532 5529 5528
5577 5575 5573 5571 5569 5567 5564 5561 5559 5556 5553 5551 5549 5547 5545 5542 5541 5539 5537 5535 5535 5534 5534 5534 5533 5532 5530 5529 5528 5527 5527 5527 5527 5526 5527 5527 5527 5527